759  
ASUS41 KBGM 241310  
RWRBGM  
 
REGIONAL WEATHER ROUNDUP  
NATIONAL WEATHER SERVICE BINGHAMTON NY  
900 AM EDT MON SEP 24 2018  
 
NOTE: "FAIR" INDICATES FEW OR NO CLOUDS BELOW 12,000 FEET WITH NO  
SIGNIFICANT WEATHER AND/OR S TO VISIBILITY
.  
 
* = STATION(S) THAT DOES NOT REPORT PRECIPITATION, SUCH AS RAIN,  
SNOW, ETC, ALSO NO THUNDER OR FOG.
 
 
NYZ009-015>018-022>025-036-037-044>046-055>057-062-241400   
..CENTRAL NEW YORK
 
 
 
CITY SKY/WX TMP DP RH WIND PRES REMARKS
 
BINGHAMTON FOG 46 46 100 E8 30.43R VSB<1/4  
CORTLAND FAIR 50 48 93 E6 30.45R  
DANSVILLE CLOUDY 50 48 93 CALM 30.41S  
ELMIRA FOG 51 50 96 NE7 30.42R VSB 1/2  
SENECA FALLS CLOUDY 52 52 100 CALM 30.44R FOG  
ITHACA FAIR 53 49 86 E8 30.44R  
HAMILTON SUNNY 48 48 100 CALM 30.47R  
HORNELL CLOUDY 50 48 93 CALM 30.44R  
MONTICELLO FAIR 52 46 80 E13 30.47R  
ONEONTA SUNNY 48 45 87 CALM 30.47R  
PENN YAN CLOUDY 52 51 97 VRB3 30.43R  
ROME FAIR 51 48 89 E8 30.50R  
SIDNEY PTSUNNY 48 48 100 CALM 30.47R  
SYRACUSE FAIR 51 50 96 E9 30.46R  

 
 
PAZ038>040-043-044-047-048-072-241400   
..NORTHEAST PENNSYLVANIA
 
 
 
CITY SKY/WX TMP DP RH WIND PRES REMARKS
 
SCRANTON FAIR 56 49 77 E5 30.43R  

 

 
KEY  
WCI = WIND CHILL INDEX  
VSB = VISIBILITY  
HX = HEAT INDEX  

 
 
 
CLICK HERE TO GO TO PREVIOUS BULLETINS.

The Nexlab NY Page
The Nexlab PA Page Main Text Page